Location: ??
(38.5526°N, 106.3480°E)
Time: 02:52:02
(UTC+00:00)

Daily predictions for brighter satellites

Satellite Brightness Start Highest point End
(mag) Time Altitude Azimuth Time Altitude Azimuth Time Altitude Azimuth
Meteor 2-21 4.4 10:18:22 10° N 10:24:32 76° E 10:30:37 10° SSE
Cosmos 1331 Rocket 4.3 10:20:09 10° SSW 10:25:17 72° WNW 10:30:27 10° NNE
NOAA 12 4.1 10:21:18 10° SSE 10:26:34 80° ENE 10:31:54 10° N
Cosmos 2227 Rocket 3.2 10:23:48 10° N 10:28:30 26° ENE 10:33:10 10° ESE
Cosmos 1825 Rocket 3.5 10:27:06 10° N 10:31:34 82° E 10:35:57 10° S
YAOGAN 1 4.1 10:31:00 10° ESE 10:33:31 15° ENE 10:36:01 10° NNE
USA 281 3.3 10:27:25 10° SSE 10:33:59 86° ENE 10:40:35 10° NNW
Okean O Rocket 1.8 10:30:12 10° S 10:34:33 77° WSW 10:38:55 10° NNW
Atlas Centaur 2 3.9 10:27:50 10° SW 10:35:18 40° SSE 10:43:04 10° E
ADEOS Rocket 4.3 10:29:10 10° N 10:35:30 52° WNW 10:42:27 10° SW
Cosmos 1939 Rocket 3.5 10:33:55 10° SE 10:37:28 32° ENE 10:40:59 10° N
Cosmos 1697 Rocket 3.5 10:35:40 10° SSE 10:40:26 30° ESE 10:45:15 10° NE
Cosmos 1726 Rocket 3.6 10:38:20 10° S 10:42:40 83° W 10:47:03 10° N
Cosmos 292 Rocket 4.4 10:39:48 10° SSW 10:44:30 58° WNW 10:49:16 10° N
Cosmos 968 Rocket 4.3 10:41:09 10° N 10:45:39 29° ENE 10:50:06 10° ESE
Cosmos 2228 3.9 10:42:45 10° SSW 10:46:52 51° W 10:51:03 10° N
Helios 1A Rocket 3.7 10:44:48 10° SE 10:48:23 30° ENE 10:51:58 10° N
NOAA 11 4.1 10:45:54 10° SSE 10:51:21 82° ENE 10:56:48 10° N
Meteor 2-16 Rocket 4.4 10:47:11 10° N 10:53:17 82° E 10:59:24 10° S
Cosmos 1400 Rocket 2.8 10:49:29 10° S 10:53:36 84° E 10:57:42 10° N
SMAP 4.3 10:49:58 10° S 10:54:26 46° W 10:58:56 10° NNW
Cosmos 1408 3.9 10:52:00 10° NNE 10:54:44 19° ENE 10:56:15 16° ESE
Cosmos 1302 Rocket 4.3 10:51:36 10° SSW 10:56:51 74° WNW 11:02:09 10° NNE
Cosmos 1892 3.3 10:54:27 10° NNE 10:58:02 34° ENE 11:01:35 10° SE
Cosmos 44 Rocket 4.1 10:56:47 10° S 11:00:47 28° ESE 11:03:17 18° ENE
CZ-4 R/B 1.9 10:59:28 10° SE 11:02:59 33° ENE 11:06:29 10° N
Cosmos 1980 Rocket 3.2 10:59:07 10° SSE 11:03:31 24° ESE 11:05:59 18° ENE
Cosmos 1300 4.3 11:01:08 10° SSW 11:04:41 37° W 11:08:16 10° N
Cosmos 1244 Rocket 4.5 11:00:25 10° N 11:06:40 86° E 11:12:57 10° S
Cosmos 2297 Rocket 2.1 11:02:52 10° NNW 11:08:32 66° ENE 11:14:08 10° SSE
Okean-O 2.8 11:05:11 10° SE 11:09:25 47° ENE 11:13:40 10° N
Cosmos 1486 Rocket 4.2 11:04:23 10° N 11:09:35 50° ENE 11:14:42 10° SE
Cosmos 2058 3.4 11:06:25 10° N 11:10:12 35° ENE 11:13:57 10° SE
PSLV R/B 3.8 11:06:31 10° NNE 11:10:42 84° ESE 11:14:49 10° SSW
In-Cosmos 22 Rocket 4.0 11:05:30 10° N 11:10:53 72° E 11:16:22 10° SSE
SKYMED 2 3.7 11:07:00 10° N 11:11:20 78° WNW 11:15:40 10° SSW
Cosmos 220 Rocket 3.9 11:08:46 10° S 11:13:03 65° ESE 11:17:25 10° NNE
Aureole 3 3.8 11:10:38 10° SSW 11:13:46 45° W 11:16:40 10° N
CZ-2D R/B 3.1 11:10:08 10° SSE 11:13:54 65° ENE 11:17:41 10° N
Cosmos 1825 4.1 11:14:04 10° NNE 11:14:56 15° NNE 11:14:56 15° NNE
SL-4 R/B 4.0 11:18:17 10° NNW 11:19:58 13° NNE 11:20:27 12° NNE
CZ-2C R/B 3.4 11:16:09 10° SSE 11:21:47 54° ENE 11:27:17 10° N
Cosmos 2360 4.3 11:16:30 10° S 11:22:02 53° ESE 11:27:11 12° NNE
Cosmos 1346 Rocket 2.9 11:18:51 10° N 11:22:45 50° ENE 11:26:37 10° SSE
Cosmos 1315 Rocket 2.7 11:21:51 10° S 11:25:44 63° E 11:29:41 10° NNE
OAO 2 Rocket 3.6 11:23:12 10° WSW 11:28:05 56° S 11:30:04 33° ESE
Cosmos 1340 3.3 11:25:33 10° NNW 11:29:15 55° W 11:32:56 10° S
USA 305 4.1 11:27:23 10° NNW 11:31:00 25° NNE 11:31:07 25° NNE
Cosmos 1354 Rocket 4.5 11:26:37 10° N 11:31:30 38° ENE 11:32:23 35° E
Meteor 2-10 Rocket 3.5 11:27:48 10° S 11:33:10 88° W 11:38:21 10° N
GPS 2-04 Rocket1 3.6 11:30:11 10° SW 11:33:57 36° SSE 11:34:33 34° SE
Cosmos 2278 3.9 11:28:49 10° S 11:34:14 47° ESE 11:36:50 28° NE
Cosmos 1992 Rocket 4.0 11:29:46 10° SSW 11:34:58 85° WNW 11:40:12 10° NNE
USA 306 4.1 11:33:47 10° NNW 11:37:18 27° NNE 11:37:18 27° NNE
ASTRO E2 3.9 11:35:20 10° WSW 11:38:46 28° S 11:39:20 27° SSE
S3M 3.9 11:33:38 10° S 11:39:45 87° W 11:45:56 10° N
Cosmos 2219 3.7 11:34:19 10° NNW 11:40:00 64° WSW 11:45:39 10° S
SL-08 ROCKET BODY 4.4 11:33:57 10° N 11:40:07 87° W 11:46:17 10° S
Cosmos 2315 Rocket 4.1 11:34:58 10° SSE 11:40:50 46° E 11:46:43 10° NNE
NOSS 3-3 (A) 4.0 11:37:52 10° SW 11:43:34 71° NW 11:49:09 14° NNE
NOSS 3-3 (C) 4.0 11:37:58 10° SW 11:43:40 72° NW 11:49:12 14° NNE
Cosmos 2082 3.7 11:42:33 10° NNW 11:48:15 63° ENE 11:50:13 40° SE
H-2A R/B 2.0 11:45:09 12° SSE 11:50:05 67° ENE 11:55:30 10° N
ARGOS 3.3 11:49:55 48° E 11:50:10 49° ENE 11:55:22 10° N
Cosmos 1455 2.8 11:49:01 10° SSW 11:52:42 55° W 11:56:26 10° N
Geosat 4.0 11:48:56 17° NNE 11:52:51 80° WNW 11:57:51 10° SSW
